Location: Bohy
(49.9380°N, 13.5753°E)
Time: 07:32:18
(UTC+00:00)

COSMOS 2428 - Pass Details

Date: 19 May 2025
Orbit: 845 x 853 km, 70.9° (Epoch: 22 June)

Event Time Altitude Azimuth Distance (km) Brightness Sun altitude
Rises 22:55:34 0° 333° (NNW) 3,433 7.0 -20.1°
Reaches altitude 10° 22:58:18 10° 343° (NNW) 2,495 6.2 -20.1°
Maximum altitude 23:03:27 33° 47° (NE) 1,409 4.2 -20.1°
Drops below altitude 10° 23:08:33 10° 110° (ESE) 2,484 4.9 -20.1°
Enters shadow 23:09:52 - 116° (ESE) 2,925 5.3 -20.1°
